Weather reports worldwide

Advertisment
Limoges, France (7434): temperature & dewpoint: 15.02.2019 22:00:00 - 21.02.2019 22:00:00 (CET)Limoges, France (7434): temperature 5cm: 15.02.2019 22:00:00 - 21.02.2019 22:00:00 (CET)Limoges, France (7434): temperature -20cm & temperature -100cm: 15.02.2019 22:00:00 - 21.02.2019 22:00:00 (CET)Limoges, France (7434): wind speed & gusts: 15.02.2019 22:00:00 - 21.02.2019 22:00:00 (CET)Limoges, France (7434): wind direction: 15.02.2019 22:00:00 - 21.02.2019 22:00:00 (CET)Limoges, France (7434): reduced air pressure: 15.02.2019 22:00:00 - 21.02.2019 22:00:00 (CET)Limoges, France (7434): visibility: 15.02.2019 22:00:00 - 21.02.2019 22:00:00 (CET)Limoges, France (7434): sunshine duration: 15.02.2019 22:00:00 - 21.02.2019 22:00:00 (CET)Limoges, France (7434): precipitation: 15.02.2019 22:00:00 - 21.02.2019 22:00:00 (CET)
Date & Time tt [°C] td [°C] tt 5cm [°C] tt -20cm [°C] tt -100cm [°C] ff [km/h] ff [kn] fx [km/h] fx [kn] dd ppp [hPa] vv [km] sd [min] rr [mm]
21.02.2019 22:00:00 - - - - - - - - - - - - - -
21.02.2019 21:00:00 11,9 0,3 6,0 7,9 7,8 3 1 5 3 N 1030,2 21 0 0,0
21.02.2019 20:00:00 12,8 0,2 6,6 7,8 7,8 0 0 3 1 N 1030,0 15 0 0,0
21.02.2019 19:00:00 13,3 0,6 7,1 7,7 7,8 2 1 4 2 NW 1029,3 26 0 0,0
21.02.2019 18:00:00 16,3 0,0 14,0 7,6 7,8 3 1 7 4 W 1028,2 60 50 0,0
21.02.2019 17:00:00 17,3 0,0 18,8 7,4 7,8 3 2 14 8 ESE 1027,7 52 60 0,0
21.02.2019 16:00:00 17,6 -0,7 20,8 7,3 7,8 8 4 18 10 S 1027,6 51 60 0,0
21.02.2019 15:00:00 17,0 -0,3 20,1 7,2 7,8 7 4 21 11 SE 1027,7 40 60 0,0
21.02.2019 14:00:00 16,2 1,5 19,5 7,2 7,8 10 5 16 9 S 1028,1 38 60 0,0
21.02.2019 13:00:00 15,0 2,8 19,7 7,1 7,8 8 4 16 9 SE 1028,5 20 60 0,0
21.02.2019 12:00:00 13,6 3,1 15,4 7,1 7,8 6 4 13 7 SE 1028,8 20 60 0,0
21.02.2019 11:00:00 11,1 3,4 12,2 7,2 7,8 7 4 14 8 ESE 1029,1 30 60 0,0
21.02.2019 10:00:00 8,2 3,2 7,0 7,2 7,8 8 4 14 8 E 1029,3 17 60 0,0
21.02.2019 09:00:00 6,1 2,0 4,5 7,3 7,8 8 4 14 7 NE 1029,2 19 49 0,0
21.02.2019 08:00:00 5,8 2,1 4,0 7,3 7,8 7 4 12 6 ENE 1028,8 24 0 0,0
21.02.2019 07:00:00 5,1 1,8 3,7 7,4 7,8 10 5 12 7 NE 1028,3 21 0 0,0
21.02.2019 06:00:00 5,1 1,8 3,9 7,4 7,8 9 5 14 8 NE 1028,1 21 0 0,0
21.02.2019 05:00:00 5,2 2,0 4,0 7,5 7,8 9 5 14 7 NE 1028,0 19 0 0,0
21.02.2019 04:00:00 5,5 2,1 4,1 7,5 7,8 10 5 14 7 NE 1028,0 20 0 0,0
21.02.2019 03:00:00 5,5 2,1 4,3 7,6 7,8 9 5 10 6 NE 1027,9 16 0 0,0
21.02.2019 02:00:00 6,2 2,6 4,9 7,6 7,8 9 5 11 6 NE 1027,6 14 0 0,0
21.02.2019 01:00:00 7,1 3,0 5,4 7,6 7,8 7 4 9 5 NE 1027,0 14 0 0,0
21.02.2019 00:00:00 8,7 3,3 5,7 7,7 7,8 5 3 6 3 ENE 1026,4 20 0 0,0
20.02.2019 23:00:00 9,1 3,3 4,0 7,6 7,7 4 2 5 3 ENE 1026,1 16 0 0,0
20.02.2019 22:00:00 8,9 3,3 3,3 7,7 7,8 4 2 6 3 SE 1025,7 21 0 0,0
20.02.2019 21:00:00 9,2 3,0 4,1 7,6 7,7 5 3 9 5 SSW 1025,3 33 0 0,0
20.02.2019 20:00:00 10,1 3,1 5,2 7,6 7,7 4 2 7 4 WSW 1024,9 29 0 0,0
20.02.2019 19:00:00 10,8 3,3 6,2 7,5 7,8 3 2 6 3 SSW 1024,4 32 0 0,0
20.02.2019 18:00:00 13,5 3,8 11,2 7,4 7,7 4 2 11 6 SSW 1023,6 38 48 0,0
20.02.2019 17:00:00 14,9 4,3 16,0 7,2 7,7 6 4 18 10 S 1023,2 41 60 0,0
20.02.2019 16:00:00 15,0 4,7 18,3 7,1 7,7 8 4 19 10 SE 1022,9 43 60 0,0
20.02.2019 15:00:00 14,2 5,0 18,6 7,0 7,7 11 6 27 14 SSE 1023,3 24 60 0,0
20.02.2019 14:00:00 13,4 5,5 16,4 7,0 7,7 12 6 23 12 S 1023,7 15 60 0,0
20.02.2019 13:00:00 11,8 5,4 15,3 7,0 7,7 11 6 21 11 SE 1024,2 13 60 0,0
20.02.2019 12:00:00 10,0 4,8 12,0 7,0 7,7 11 6 18 10 SSE 1024,7 13 60 0,0
20.02.2019 11:00:00 8,0 4,2 9,9 7,0 7,7 11 6 17 9 SE 1024,8 14 60 0,0
20.02.2019 10:00:00 6,3 3,6 5,1 7,1 7,7 8 4 11 6 ESE 1024,8 10 60 0,0
20.02.2019 09:00:00 4,1 2,6 2,7 7,1 7,7 6 3 13 7 E 1024,5 10 40 0,0
20.02.2019 08:00:00 3,6 2,4 2,5 7,2 7,7 6 4 14 7 E 1023,8 9 0 0,0
20.02.2019 07:00:00 3,9 2,9 2,6 7,2 7,7 7 4 11 6 NE 1023,3 7 0 0,0
20.02.2019 06:00:00 3,6 2,7 2,7 7,2 7,6 8 4 12 6 NE 1023,4 7 0 0,0
20.02.2019 05:00:00 3,8 2,8 2,9 7,3 7,7 9 5 13 7 NE 1023,1 7 0 0,0
20.02.2019 04:00:00 4,4 3,2 3,2 7,4 7,7 7 4 10 5 NE 1023,1 7 0 0,0
20.02.2019 03:00:00 4,8 3,3 3,7 7,4 7,7 5 3 9 5 ENE 1023,2 9 0 0,0
20.02.2019 02:00:00 5,7 4,2 4,4 7,4 7,7 5 3 11 6 NE 1023,0 10 0 0,0
20.02.2019 01:00:00 6,1 4,3 4,7 7,4 7,7 8 4 11 6 NE 1022,9 10 0 0,0
20.02.2019 00:00:00 6,8 4,5 5,3 7,4 7,6 6 3 10 5 ENE 1022,8 12 0 0,0
19.02.2019 23:00:00 7,5 4,6 5,7 7,5 7,6 5 3 9 5 ENE 1022,5 15 0 0,0
19.02.2019 22:00:00 7,9 4,3 5,7 7,5 7,6 5 3 10 5 NE 1022,4 19 0 0,0
19.02.2019 21:00:00 8,3 4,5 6,1 7,4 7,6 7 4 13 7 NNE 1022,2 18 0 0,0
19.02.2019 20:00:00 9,0 4,4 5,0 7,3 7,6 5 3 13 7 N 1021,9 20 0 0,0
19.02.2019 19:00:00 9,8 4,4 6,3 7,2 7,6 4 2 5 3 NNW 1021,4 13 0 0,0
19.02.2019 18:00:00 11,5 4,5 10,2 7,1 7,6 2 1 9 5 NW 1020,7 30 50 0,0
19.02.2019 17:00:00 12,7 4,4 14,0 7,1 7,7 3 2 11 6 NE 1020,7 16 60 0,0
19.02.2019 16:00:00 12,3 4,8 14,6 6,9 7,6 6 3 12 7 ENE 1021,0 32 25 0,0
19.02.2019 15:00:00 12,5 4,5 16,3 6,9 7,6 4 2 19 10 N 1021,4 17 60 0,0
19.02.2019 14:00:00 11,9 4,6 15,7 6,9 7,6 10 5 22 12 SSE 1021,7 20 57 0,0
19.02.2019 13:00:00 10,9 4,6 12,6 6,8 7,6 8 5 19 10 SSE 1022,5 32 43 0,0
19.02.2019 12:00:00 8,7 3,5 9,4 6,8 7,6 6 3 14 8 SE 1023,7 31 4 0,0
19.02.2019 11:00:00 7,2 2,5 7,0 6,8 7,6 6 3 13 7 ESE 1023,9 24 0 0,0
19.02.2019 10:00:00 6,4 2,1 6,1 6,9 7,6 7 4 10 5 ESE 1023,8 33 0 0,0
19.02.2019 09:00:00 5,7 1,8 4,8 6,9 7,6 5 3 11 6 E 1023,5 35 0 0,0
19.02.2019 08:00:00 5,4 1,7 4,6 6,9 7,6 4 2 10 5 E 1022,7 32 0 0,0
19.02.2019 07:00:00 5,3 1,8 4,3 6,9 7,6 5 3 9 5 E 1022,2 31 0 0,0
19.02.2019 06:00:00 5,5 2,3 4,4 7,0 7,6 5 3 11 6 E 1022,2 26 0 0,0
19.02.2019 05:00:00 6,1 2,7 4,8 7,0 7,6 8 4 12 7 ESE 1022,0 24 0 0,0
19.02.2019 04:00:00 6,3 2,7 4,9 7,0 7,6 7 4 16 8 SE 1021,9 30 0 0,0
19.02.2019 03:00:00 7,4 2,9 5,5 7,0 7,6 9 5 16 9 S 1021,9 38 0 0,0
19.02.2019 02:00:00 7,4 2,9 6,5 7,0 7,6 13 7 19 10 S 1022,1 38 0 0,0
19.02.2019 01:00:00 7,5 3,0 4,6 7,1 7,6 9 5 18 10 S 1021,9 37 0 0,0
19.02.2019 00:00:00 7,4 2,7 5,0 7,1 7,6 11 6 18 10 S 1021,5 35 0 0,0
18.02.2019 23:00:00 8,6 3,0 6,6 7,0 7,6 15 8 30 16 S 1021,1 44 0 0,0
18.02.2019 22:00:00 9,5 3,2 6,4 7,0 7,6 19 10 27 15 S 1020,4 47 0 0,0
18.02.2019 21:00:00 9,5 2,6 5,3 7,0 7,6 10 5 15 8 SSE 1019,8 4,6 0 0,0
18.02.2019 20:00:00 10,0 2,6 5,3 6,9 7,6 9 5 14 8 SW 1019,3 53 0 0,0
18.02.2019 19:00:00 11,4 2,9 7,2 6,9 7,6 9 5 15 8 SSW 1018,6 52 0 0,0
18.02.2019 18:00:00 12,9 3,0 10,9 6,8 7,6 13 7 26 14 SSW 1018,0 60 2 0,0
18.02.2019 17:00:00 14,5 3,0 14,6 6,7 7,6 19 10 33 18 SSW 1017,7 54 56 0,0
18.02.2019 16:00:00 15,2 3,0 18,0 6,5 7,6 23 12 36 19 S 1017,6 29 60 0,0
18.02.2019 15:00:00 14,8 3,0 17,9 6,5 7,6 20 11 39 21 S 1017,7 27 60 0,0
18.02.2019 14:00:00 14,2 3,9 16,2 6,4 7,6 21 11 35 19 S 1018,5 31 60 0,0
18.02.2019 13:00:00 13,2 3,5 16,4 6,4 7,6 25 14 40 22 S 1019,3 35 60 0,0
18.02.2019 12:00:00 12,0 3,2 14,9 6,4 7,6 27 15 46 25 S 1020,0 39 60 0,0
18.02.2019 11:00:00 10,6 3,1 11,4 6,4 7,6 22 12 32 17 SSE 1020,2 52 60 0,0
18.02.2019 10:00:00 8,1 1,7 5,9 6,5 7,6 14 7 25 14 SE 1020,7 47 55 0,0
18.02.2019 09:00:00 6,4 0,7 3,9 6,5 7,6 13 7 21 11 ESE 1020,9 49 40 0,0
18.02.2019 08:00:00 4,7 -0,1 3,5 6,6 7,6 11 6 23 12 SE 1020,9 60 0 0,0
18.02.2019 07:00:00 4,7 -0,3 3,7 6,6 7,6 14 7 23 12 ESE 1020,7 60 0 0,0
18.02.2019 06:00:00 4,9 -0,5 3,9 6,7 7,6 15 8 23 12 SE 1020,5 60 0 0,0
18.02.2019 05:00:00 5,0 -0,8 4,0 6,7 7,6 13 7 21 11 ESE 1020,5 60 0 0,0
18.02.2019 04:00:00 5,5 -1,0 4,4 6,8 7,6 13 7 23 13 ESE 1020,7 60 0 0,0
18.02.2019 03:00:00 5,8 -1,4 4,4 6,8 7,6 14 7 22 12 SE 1021,3 60 0 0,0
18.02.2019 02:00:00 6,3 -1,8 4,7 6,8 7,6 14 7 21 12 SE 1021,2 60 0 0,0
18.02.2019 01:00:00 6,8 -0,9 5,0 6,8 7,6 8 5 17 9 SE 1021,5 53 0 0,0
18.02.2019 00:00:00 8,1 -0,4 6,5 6,8 7,6 11 6 31 17 ESE 1021,4 59 0 0,0
17.02.2019 23:00:00 8,5 -0,8 6,6 6,9 7,6 13 7 20 11 SE 1021,8 44 0 0,0
17.02.2019 22:00:00 10,2 -0,9 8,0 6,8 7,6 10 6 22 12 SE 1021,7 52 0 0,0
17.02.2019 21:00:00 11,5 -1,3 8,0 6,8 7,5 9 5 16 9 SE 1021,1 55 0 0,0
17.02.2019 20:00:00 12,2 -2,1 5,7 6,7 7,6 8 4 16 9 SSE 1020,6 59 0 0,0
17.02.2019 19:00:00 12,4 -3,9 7,0 6,7 7,6 6 3 14 7 SSE 1020,4 60 0 0,0
17.02.2019 18:00:00 14,4 -3,4 12,1 6,6 7,6 8 5 18 10 SSE 1019,9 60 49 0,0
17.02.2019 17:00:00 16,8 -3,9 17,7 6,5 7,6 12 6 24 13 S 1020,1 57 60 0,0
17.02.2019 16:00:00 16,8 -4,5 19,6 6,3 7,5 17 9 30 16 S 1020,5 43 60 0,0
17.02.2019 15:00:00 16,3 -4,9 19,0 6,3 7,6 19 11 30 16 S 1020,9 36 60 0,0
17.02.2019 14:00:00 15,9 -5,2 18,2 6,2 7,6 22 12 34 18 S 1021,3 37 60 0,0
17.02.2019 13:00:00 15,1 -6,5 18,3 6,2 7,6 24 13 38 21 SSE 1022,2 40 60 0,0
17.02.2019 12:00:00 14,2 -7,3 16,1 6,2 7,5 27 15 41 22 S 1022,7 50 60 0,0
17.02.2019 11:00:00 12,3 -7,7 13,8 6,2 7,5 13 7 23 12 SSE 1023,1 60 60 0,0
17.02.2019 10:00:00 10,5 -9,8 8,1 6,3 7,5 12 7 22 12 SE 1023,5 58 60 0,0
17.02.2019 09:00:00 8,7 -10,8 5,2 6,4 7,5 11 6 16 9 ESE 1023,7 58 38 0,0
17.02.2019 08:00:00 7,1 -11,6 5,6 6,4 7,6 11 6 23 13 ESE 1024,0 60 0 0,0
17.02.2019 07:00:00 7,6 -11,7 6,2 6,5 7,6 15 8 26 14 SE 1023,4 60 0 0,0
17.02.2019 06:00:00 7,9 -11,0 6,0 6,5 7,6 15 8 23 12 ESE 1023,4 60 0 0,0
17.02.2019 05:00:00 8,1 -11,3 6,5 6,6 7,6 16 9 24 13 SE 1023,3 60 0 0,0
17.02.2019 04:00:00 7,9 -11,0 6,2 6,6 7,6 13 7 23 13 ESE 1023,5 60 0 0,0
17.02.2019 03:00:00 8,7 -10,8 7,2 6,6 7,5 13 7 25 14 ESE 1023,7 60 0 0,0
17.02.2019 02:00:00 8,7 -9,8 7,0 6,7 7,6 13 7 21 11 SE 1023,9 60 0 0,0
17.02.2019 01:00:00 9,0 -9,0 7,5 6,7 7,6 13 7 21 11 ESE 1024,1 60 0 0,0
17.02.2019 00:00:00 9,4 -7,3 8,0 6,7 7,6 13 7 21 11 ESE 1024,2 60 0 0,0
16.02.2019 23:00:00 10,2 -5,8 8,4 6,7 7,5 14 7 20 11 SE 1024,4 48 0 0,0
16.02.2019 22:00:00 10,5 -5,5 7,0 6,6 7,5 10 6 18 10 ESE 1024,5 46 0 0,0
16.02.2019 21:00:00 10,9 -6,0 6,7 6,6 7,5 9 5 14 8 ESE 1024,6 44 0 0,0
16.02.2019 20:00:00 12,6 -6,4 6,2 6,6 7,6 9 5 15 8 SE 1024,4 44 0 0,0
16.02.2019 19:00:00 12,8 -7,3 8,4 6,5 7,6 7 4 11 6 SSE 1024,6 56 0 0,0
16.02.2019 18:00:00 14,4 -7,1 12,2 6,4 7,6 8 4 20 11 SSE 1024,3 60 49 0,0
16.02.2019 17:00:00 16,4 -6,0 17,1 6,2 7,5 12 6 22 12 SSE 1024,5 52 60 0,0
16.02.2019 16:00:00 16,8 -2,8 19,1 6,1 7,5 12 6 27 15 SSE 1025,0 60 60 0,0
16.02.2019 15:00:00 15,7 -0,1 18,0 6,0 7,5 16 8 27 14 SSE 1025,7 52 60 0,0
16.02.2019 14:00:00 14,9 0,3 16,9 6,0 7,6 17 9 29 16 S 1026,5 53 60 0,0
16.02.2019 13:00:00 13,5 -0,9 17,3 6,0 7,5 16 8 29 16 S 1027,5 55 60 0,0
16.02.2019 12:00:00 11,6 -3,8 12,9 6,0 7,5 15 8 25 14 SSE 1028,3 60 60 0,0
16.02.2019 11:00:00 9,7 -5,4 11,6 6,1 7,6 12 7 21 12 SE 1028,5 58 60 0,0
16.02.2019 10:00:00 7,0 -3,0 4,6 6,1 7,6 5 3 11 6 ENE 1028,9 52 60 0,0
16.02.2019 09:00:00 4,7 -5,1 1,9 6,2 7,6 6 4 11 6 ENE 1029,5 49 36 0,0
16.02.2019 08:00:00 3,3 -5,6 1,7 6,2 7,6 8 5 11 6 NE 1029,3 59 0 0,0
16.02.2019 07:00:00 4,0 -6,3 1,8 6,3 7,5 8 4 13 7 NE 1029,0 60 0 0,0
16.02.2019 06:00:00 4,2 -6,4 2,3 6,4 7,5 8 5 10 5 NE 1028,9 57 0 0,0
16.02.2019 05:00:00 4,3 -6,3 2,2 6,4 7,5 8 4 10 5 NE 1028,7 57 0 0,0
16.02.2019 04:00:00 5,5 -6,4 3,3 6,5 7,6 6 3 8 5 NE 1028,6 57 0 0,0
16.02.2019 03:00:00 6,4 -6,9 4,0 6,5 7,6 5 3 9 5 NE 1028,7 60 0 0,0
16.02.2019 02:00:00 6,5 -6,2 4,3 6,6 7,5 6 3 11 6 NE 1029,0 60 0 0,0
16.02.2019 01:00:00 7,9 -6,3 5,1 6,6 7,6 6 4 10 5 NNE 1028,5 54 0 0,0
16.02.2019 00:00:00 8,6 -8,5 3,1 6,6 7,5 6 4 9 5 NE 1028,1 46 0 0,0
15.02.2019 23:00:00 9,4 -8,7 3,4 6,6 7,5 2 1 5 3 SW 1027,9 51 0 0,0
15.02.2019 22:00:00 11,0 -9,4 3,6 6,6 7,6 4 2 5 3 E 1027,5 55 0 0,0

tt = temperature
td = dewpoint
tt 5cm = temperature 5cm
tt -20cm = temperature -20cm
tt -100cm = temperature -100cm
ff = wind speed
fx = gusts
dd = wind direction
ppp = reduced air pressure
vv = visibility
sd = sunshine duration
rr = precipitation

Next stations